When you browse on this site, cookies collect data to enhance your experience and personalize the content and advertising you see.
Visit our Privacy Policy to learn more. By continuing to use the site, you agree to this use of cookies and data.

Stündliche Wetter Lethem

Heute, 12 Juli, Sonntag

Zeit Temperatur Niederschläge Wind Luftdruck Luftfeuchtigkeit
00:00 +26°C° 0.7 mm 1 m/S 751 mmHg 87%
01:00 +26°C° 0.7 mm 1 m/S 750 mmHg 89%
02:00 +26°C° 0.7 mm 2 m/S 750 mmHg 91%
03:00 +26°C° 0.2 mm 2 m/S 750 mmHg 91%
04:00 +25°C° 0.2 mm 2 m/S 750 mmHg 92%
05:00 +25°C° 0.2 mm 2 m/S 750 mmHg 93%
06:00 +26°C° 0 mm 3 m/S 751 mmHg 91%
07:00 +27°C° 0 mm 3 m/S 751 mmHg 88%
08:00 +28°C° 0 mm 3 m/S 752 mmHg 86%
09:00 +29°C° 1 mm 3 m/S 752 mmHg 81%
10:00 +30°C° 1 mm 4 m/S 751 mmHg 76%
11:00 +32°C° 1 mm 4 m/S 751 mmHg 70%
12:00 +33°C° 1 mm 3 m/S 751 mmHg 70%
13:00 +33°C° 1 mm 3 m/S 750 mmHg 70%
14:00 +33°C° 1 mm 3 m/S 750 mmHg 69%
15:00 +31°C° 0.8 mm 3 m/S 749 mmHg 73%
16:00 +31°C° 0.8 mm 2 m/S 749 mmHg 76%
17:00 +30°C° 0.8 mm 2 m/S 749 mmHg 79%
18:00 +29°C° 0.2 mm 2 m/S 749 mmHg 82%
19:00 +28°C° 0.2 mm 2 m/S 750 mmHg 85%
20:00 +27°C° 0.2 mm 2 m/S 750 mmHg 87%
21:00 +26°C° 0 mm 2 m/S 751 mmHg 87%
22:00 +26°C° 0 mm 2 m/S 751 mmHg 88%
23:00 +26°C° 0 mm 2 m/S 752 mmHg 88%

Morgen, 13 Juli, Montag

Zeit Temperatur Niederschläge Wind Luftdruck Luftfeuchtigkeit
00:00 +26°C° 0 mm 2 m/S 751 mmHg 89%
01:00 +25°C° 0 mm 2 m/S 751 mmHg 90%
02:00 +25°C° 0 mm 2 m/S 750 mmHg 91%
03:00 +25°C° 0 mm 2 m/S 750 mmHg 91%
04:00 +25°C° 0 mm 2 m/S 751 mmHg 92%
05:00 +25°C° 0 mm 2 m/S 751 mmHg 92%
06:00 +26°C° 0 mm 3 m/S 751 mmHg 89%
07:00 +27°C° 0 mm 3 m/S 752 mmHg 86%
08:00 +28°C° 0 mm 3 m/S 752 mmHg 83%
09:00 +29°C° 0.4 mm 3 m/S 752 mmHg 77%
10:00 +30°C° 0.4 mm 3 m/S 752 mmHg 72%
11:00 +33°C° 0.4 mm 3 m/S 752 mmHg 66%
12:00 +33°C° 0.5 mm 3 m/S 751 mmHg 67%
13:00 +33°C° 0.5 mm 3 m/S 751 mmHg 67%
14:00 +32°C° 0.5 mm 2 m/S 750 mmHg 67%
15:00 +32°C° 0.3 mm 2 m/S 750 mmHg 68%
16:00 +32°C° 0.3 mm 2 m/S 750 mmHg 69%
17:00 +31°C° 0.3 mm 2 m/S 749 mmHg 70%
18:00 +30°C° 0.3 mm 2 m/S 750 mmHg 75%
19:00 +28°C° 0.3 mm 2 m/S 751 mmHg 80%
20:00 +27°C° 0.3 mm 2 m/S 751 mmHg 85%
21:00 +27°C° 0.1 mm 2 m/S 751 mmHg 85%
22:00 +26°C° 0.1 mm 2 m/S 752 mmHg 85%
23:00 +26°C° 0.1 mm 2 m/S 752 mmHg 86%

übermorgen, 14 Juli, Dienstag

Zeit Temperatur Niederschläge Wind Luftdruck Luftfeuchtigkeit
00:00 +26°C° 0 mm 2 m/S 752 mmHg 87%
01:00 +25°C° 0 mm 2 m/S 751 mmHg 88%
02:00 +25°C° 0 mm 2 m/S 751 mmHg 89%
03:00 +25°C° 0 mm 2 m/S 751 mmHg 89%
04:00 +25°C° 0 mm 2 m/S 751 mmHg 90%
05:00 +25°C° 0 mm 2 m/S 750 mmHg 90%
06:00 +26°C° 0 mm 2 m/S 751 mmHg 87%
07:00 +27°C° 0 mm 2 m/S 752 mmHg 83%
08:00 +28°C° 0 mm 2 m/S 752 mmHg 80%
09:00 +30°C° 0.2 mm 2 m/S 752 mmHg 73%
10:00 +31°C° 0.2 mm 2 m/S 752 mmHg 67%
11:00 +34°C° 0.2 mm 2 m/S 752 mmHg 61%
12:00 +34°C° 0.3 mm 2 m/S 752 mmHg 59%
13:00 +33°C° 0.3 mm 1 m/S 751 mmHg 57%
14:00 +34°C° 0.3 mm 1 m/S 750 mmHg 55%
15:00 +33°C° 0.3 mm 1 m/S 750 mmHg 60%
16:00 +32°C° 0.3 mm 2 m/S 750 mmHg 65%
17:00 +31°C° 0.3 mm 2 m/S 750 mmHg 70%
18:00 +30°C° 0 mm 2 m/S 750 mmHg 72%
19:00 +28°C° 0 mm 2 m/S 751 mmHg 74%
20:00 +27°C° 0 mm 1 m/S 751 mmHg 77%
21:00 +27°C° 0 mm 1 m/S 751 mmHg 77%
22:00 +27°C° 0 mm 1 m/S 752 mmHg 77%
23:00 +26°C° 0 mm 1 m/S 752 mmHg 78%

15 Juli, Mittwoch

Zeit Temperatur Niederschläge Wind Luftdruck Luftfeuchtigkeit
00:00 +26°C° 0 mm 1 m/S 751 mmHg 79%
01:00 +25°C° 0 mm 1 m/S 751 mmHg 81%
02:00 +25°C° 0 mm 1 m/S 750 mmHg 82%
03:00 +25°C° 0 mm 1 m/S 751 mmHg 83%
04:00 +25°C° 0 mm 1 m/S 751 mmHg 84%
05:00 +25°C° 0 mm 2 m/S 751 mmHg 85%
06:00 +26°C° 0 mm 2 m/S 751 mmHg 82%
07:00 +27°C° 0 mm 2 m/S 752 mmHg 79%
08:00 +28°C° 0 mm 2 m/S 752 mmHg 76%
09:00 +29°C° 0.8 mm 2 m/S 752 mmHg 72%
10:00 +30°C° 0.8 mm 2 m/S 752 mmHg 68%
11:00 +32°C° 0.8 mm 2 m/S 752 mmHg 64%
12:00 +32°C° 0.4 mm 2 m/S 751 mmHg 62%
13:00 +34°C° 0.4 mm 2 m/S 750 mmHg 60%
14:00 +33°C° 0.4 mm 1 m/S 750 mmHg 58%
15:00 +32°C° 0.5 mm 1 m/S 750 mmHg 62%
16:00 +32°C° 0.5 mm 2 m/S 749 mmHg 66%
17:00 +31°C° 0.5 mm 2 m/S 749 mmHg 70%
18:00 +30°C° 0.1 mm 2 m/S 750 mmHg 73%
19:00 +28°C° 0.1 mm 2 m/S 750 mmHg 77%
20:00 +27°C° 0.1 mm 2 m/S 751 mmHg 81%
21:00 +27°C° 0 mm 2 m/S 751 mmHg 82%
22:00 +26°C° 0 mm 2 m/S 751 mmHg 82%
23:00 +26°C° 0 mm 1 m/S 751 mmHg 82%

16 Juli, Donnerstag

Zeit Temperatur Niederschläge Wind Luftdruck Luftfeuchtigkeit
00:00 +26°C° 0 mm 1 m/S 751 mmHg 83%
01:00 +26°C° 0 mm 2 m/S 751 mmHg 83%
02:00 +25°C° 0 mm 2 m/S 750 mmHg 84%
03:00 +25°C° 0.2 mm 2 m/S 750 mmHg 86%
04:00 +25°C° 0.2 mm 2 m/S 751 mmHg 87%
05:00 +25°C° 0.2 mm 2 m/S 751 mmHg 89%
06:00 +26°C° 0.1 mm 2 m/S 751 mmHg 87%
07:00 +26°C° 0.1 mm 3 m/S 752 mmHg 85%
08:00 +27°C° 0.1 mm 3 m/S 752 mmHg 83%
09:00 +29°C° 0.3 mm 3 m/S 752 mmHg 77%
10:00 +30°C° 0.3 mm 3 m/S 752 mmHg 72%
11:00 +33°C° 0.3 mm 3 m/S 752 mmHg 66%
12:00 +33°C° 0.3 mm 3 m/S 751 mmHg 65%
13:00 +33°C° 0.3 mm 3 m/S 751 mmHg 64%
14:00 +34°C° 0.3 mm 3 m/S 750 mmHg 62%
15:00 +33°C° 0.7 mm 3 m/S 750 mmHg 67%
16:00 +31°C° 0.7 mm 3 m/S 750 mmHg 71%
17:00 +30°C° 0.7 mm 3 m/S 749 mmHg 76%
18:00 +29°C° 0.3 mm 2 m/S 750 mmHg 79%
19:00 +28°C° 0.3 mm 2 m/S 751 mmHg 82%
20:00 +27°C° 0.3 mm 2 m/S 751 mmHg 86%
21:00 +27°C° 0.4 mm 1 m/S 751 mmHg 86%
22:00 +26°C° 0.4 mm 1 m/S 752 mmHg 87%
23:00 +26°C° 0.4 mm 1 m/S 752 mmHg 88%

17 Juli, Freitag

Zeit Temperatur Niederschläge Wind Luftdruck Luftfeuchtigkeit
00:00 +26°C° 0 mm 1 m/S 751 mmHg 89%
01:00 +25°C° 0 mm 1 m/S 751 mmHg 90%
02:00 +25°C° 0 mm 2 m/S 751 mmHg 91%
03:00 +25°C° 0.4 mm 2 m/S 751 mmHg 91%
04:00 +25°C° 0.4 mm 2 m/S 751 mmHg 92%
05:00 +25°C° 0.4 mm 2 m/S 751 mmHg 93%
06:00 +25°C° 0.1 mm 2 m/S 752 mmHg 91%
07:00 +26°C° 0.1 mm 3 m/S 752 mmHg 88%
08:00 +27°C° 0.1 mm 3 m/S 753 mmHg 86%
09:00 +28°C° 0.8 mm 3 m/S 753 mmHg 81%
10:00 +30°C° 0.8 mm 3 m/S 752 mmHg 75%
11:00 +32°C° 0.8 mm 4 m/S 752 mmHg 70%
12:00 +33°C° 0.4 mm 3 m/S 751 mmHg 66%
13:00 +34°C° 0.4 mm 3 m/S 750 mmHg 61%
14:00 +35°C° 0.4 mm 3 m/S 750 mmHg 56%
15:00 +34°C° 0.4 mm 2 m/S 749 mmHg 60%
16:00 +32°C° 0.4 mm 2 m/S 749 mmHg 65%
17:00 +32°C° 0.4 mm 2 m/S 749 mmHg 69%
18:00 +30°C° 0.2 mm 1 m/S 749 mmHg 73%
19:00 +29°C° 0.2 mm 1 m/S 750 mmHg 77%
20:00 +27°C° 0.2 mm 1 m/S 750 mmHg 81%
21:00 +27°C° 0.1 mm 1 m/S 750 mmHg 82%
22:00 +27°C° 0.1 mm 1 m/S 751 mmHg 83%
23:00 +26°C° 0.1 mm 1 m/S 751 mmHg 84%
Mehr zeigen